Time,TemperatureF,DewpointF,PressureIn,WindDirection,WindDirectionDegrees,WindSpeedMPH,WindSpeedGustMPH,Humidity,HourlyPrecipIn,Conditions,Clouds,dailyrainin,SolarRadiationWatts/m^2,SoftwareType,DateUTC
2013-08-12 00:00:00,71.0,35.0,-100.00,WNW,286,5.0,7.0,27,-99.99,,,0.00,0.000000,,2013-08-12 07:00:00,
2013-08-12 00:43:00,71.0,35.0,-100.00,WNW,286,5.0,7.0,27,-99.99,,,0.00,0.000000,,2013-08-12 07:43:00,
2013-08-12 00:52:00,71.0,35.0,-100.00,WNW,286,5.0,7.0,27,-99.99,,,0.00,0.000000,,2013-08-12 07:52:00,
2013-08-12 01:00:00,63.0,37.0,-100.00,South,190,2.0,4.0,37,-99.99,,,0.00,0.000000,,2013-08-12 08:00:00,
2013-08-12 01:43:00,63.0,37.0,-100.00,South,190,2.0,4.0,37,-99.99,,,0.00,0.000000,,2013-08-12 08:43:00,
2013-08-12 01:53:00,63.0,37.0,-100.00,South,190,2.0,4.0,37,-99.99,,,0.00,0.000000,,2013-08-12 08:53:00,
2013-08-12 02:00:00,68.0,36.0,-100.00,WNW,285,5.0,8.0,30,-99.99,,,0.00,0.000000,,2013-08-12 09:00:00,
2013-08-12 02:43:00,68.0,36.0,-100.00,WNW,285,5.0,8.0,30,-99.99,,,0.00,0.000000,,2013-08-12 09:43:00,
2013-08-12 02:53:00,68.0,36.0,-100.00,WNW,285,5.0,8.0,30,-99.99,,,0.00,0.000000,,2013-08-12 09:53:00,
2013-08-12 03:00:00,63.0,38.0,-100.00,West,281,2.0,3.0,38,-99.99,,,0.00,0.000000,,2013-08-12 10:00:00,
2013-08-12 03:43:00,63.0,38.0,-100.00,West,281,2.0,3.0,38,-99.99,,,0.00,0.000000,,2013-08-12 10:43:00,
2013-08-12 03:52:00,63.0,38.0,-100.00,West,281,2.0,3.0,38,-99.99,,,0.00,0.000000,,2013-08-12 10:52:00,
2013-08-12 04:00:00,57.0,36.0,-100.00,SW,228,2.0,3.0,45,-99.99,,,0.00,0.000000,,2013-08-12 11:00:00,
2013-08-12 04:42:00,57.0,36.0,-100.00,SW,228,2.0,3.0,45,-99.99,,,0.00,0.000000,,2013-08-12 11:42:00,
2013-08-12 04:53:00,57.0,36.0,-100.00,SW,228,2.0,3.0,45,-99.99,,,0.00,0.000000,,2013-08-12 11:53:00,
2013-08-12 05:00:00,55.0,39.0,-100.00,SSE,157,0.0,1.0,53,-99.99,,,0.00,0.000000,,2013-08-12 12:00:00,
2013-08-12 05:43:00,55.0,39.0,-100.00,SSE,157,0.0,1.0,53,-99.99,,,0.00,0.000000,,2013-08-12 12:43:00,
2013-08-12 05:52:00,55.0,39.0,-100.00,SSE,157,0.0,1.0,53,-99.99,,,0.00,0.000000,,2013-08-12 12:52:00,
2013-08-12 06:00:00,55.0,40.0,-100.00,SSE,157,0.0,1.0,55,-99.99,,,0.00,1.050000,,2013-08-12 13:00:00,
2013-08-12 06:43:00,55.0,40.0,-100.00,SSE,157,0.0,1.0,55,-99.99,,,0.00,1.050000,,2013-08-12 13:43:00,
2013-08-12 06:53:00,55.0,40.0,-100.00,SSE,157,0.0,1.0,55,-99.99,,,0.00,1.050000,,2013-08-12 13:53:00,
2013-08-12 07:00:00,59.0,39.0,-100.00,WSW,237,0.0,1.0,47,-99.99,,,0.00,101.580002,,2013-08-12 14:00:00,
2013-08-12 07:42:00,59.0,39.0,-100.00,WSW,237,0.0,1.0,47,-99.99,,,0.00,101.580002,,2013-08-12 14:42:00,
2013-08-12 07:52:00,59.0,39.0,-100.00,WSW,237,0.0,1.0,47,-99.99,,,0.00,101.580002,,2013-08-12 14:52:00,
2013-08-12 08:00:00,67.0,42.0,-100.00,WSW,245,1.0,2.0,40,-99.99,,,0.00,292.179993,,2013-08-12 15:00:00,
2013-08-12 08:43:00,67.0,42.0,-100.00,WSW,245,1.0,2.0,40,-99.99,,,0.00,292.179993,,2013-08-12 15:43:00,
2013-08-12 08:52:00,67.0,42.0,-100.00,WSW,245,1.0,2.0,40,-99.99,,,0.00,292.179993,,2013-08-12 15:52:00,
2013-08-12 09:00:00,72.0,41.0,-100.00,WNW,285,4.0,6.0,32,-99.99,,,0.00,491.609985,,2013-08-12 16:00:00,
2013-08-12 09:42:00,72.0,41.0,-100.00,WNW,285,4.0,6.0,32,-99.99,,,0.00,491.609985,,2013-08-12 16:42:00,
2013-08-12 09:53:00,72.0,41.0,-100.00,WNW,285,4.0,6.0,32,-99.99,,,0.00,491.609985,,2013-08-12 16:53:00,
2013-08-12 10:00:00,76.0,37.0,-100.00,WSW,246,4.0,7.0,24,-99.99,,,0.00,675.820007,,2013-08-12 17:00:00,
2013-08-12 10:43:00,76.0,37.0,-100.00,WSW,246,4.0,7.0,24,-99.99,,,0.00,675.820007,,2013-08-12 17:43:00,
2013-08-12 10:52:00,76.0,37.0,-100.00,WSW,246,4.0,7.0,24,-99.99,,,0.00,675.820007,,2013-08-12 17:52:00,
2013-08-12 11:00:00,79.0,36.0,-100.00,WSW,238,4.0,10.0,20,-99.99,,,0.00,820.859985,,2013-08-12 18:00:00,
2013-08-12 11:43:00,79.0,36.0,-100.00,WSW,238,4.0,10.0,20,-99.99,,,0.00,820.859985,,2013-08-12 18:43:00,
2013-08-12 11:52:00,79.0,36.0,-100.00,WSW,238,4.0,10.0,20,-99.99,,,0.00,820.859985,,2013-08-12 18:52:00,
2013-08-12 12:00:00,81.0,33.0,-100.00,SW,215,5.0,10.0,17,-99.99,,,0.00,921.280029,,2013-08-12 19:00:00,
2013-08-12 12:43:00,81.0,33.0,-100.00,SW,215,5.0,10.0,17,-99.99,,,0.00,921.280029,,2013-08-12 19:43:00,
2013-08-12 12:52:00,81.0,33.0,-100.00,SW,215,5.0,10.0,17,-99.99,,,0.00,921.280029,,2013-08-12 19:52:00,
2013-08-12 13:00:00,83.0,35.0,-100.00,SSW,202,4.0,9.0,17,-99.99,,,0.00,959.979980,,2013-08-12 20:00:00,
2013-08-12 13:42:00,83.0,35.0,-100.00,SSW,202,4.0,9.0,17,-99.99,,,0.00,959.979980,,2013-08-12 20:42:00,
2013-08-12 13:52:00,83.0,35.0,-100.00,SSW,202,4.0,9.0,17,-99.99,,,0.00,959.979980,,2013-08-12 20:52:00,
2013-08-12 14:00:00,85.0,33.0,-100.00,SW,233,3.0,7.0,15,-99.99,,,0.00,949.520020,,2013-08-12 21:00:00,
2013-08-12 14:43:00,85.0,33.0,-100.00,SW,233,3.0,7.0,15,-99.99,,,0.00,949.520020,,2013-08-12 21:43:00,
2013-08-12 14:52:00,85.0,33.0,-100.00,SW,233,3.0,7.0,15,-99.99,,,0.00,949.520020,,2013-08-12 21:52:00,
2013-08-12 15:00:00,86.0,33.0,-100.00,South,169,4.0,7.0,14,-99.99,,,0.00,930.919983,,2013-08-12 22:00:00,
2013-08-12 15:43:00,86.0,33.0,-100.00,South,169,4.0,7.0,14,-99.99,,,0.00,930.919983,,2013-08-12 22:43:00,
2013-08-12 15:53:00,86.0,33.0,-100.00,South,169,4.0,7.0,14,-99.99,,,0.00,930.919983,,2013-08-12 22:53:00,
2013-08-12 16:00:00,88.0,32.0,-100.00,WNW,300,4.0,12.0,13,-99.99,,,0.00,725.909973,,2013-08-12 23:00:00,
2013-08-12 16:53:00,88.0,32.0,-100.00,WNW,300,4.0,12.0,13,-99.99,,,0.00,725.909973,,2013-08-12 23:53:00,
2013-08-12 17:00:00,88.0,30.0,-100.00,SSW,202,4.0,9.0,12,-99.99,,,0.00,546.820007,,2013-08-13 00:00:00,
2013-08-12 17:45:00,88.0,30.0,-100.00,SSW,202,4.0,9.0,12,-99.99,,,0.00,546.820007,,2013-08-13 00:45:00,
2013-08-12 17:53:00,88.0,30.0,-100.00,SSW,202,4.0,9.0,12,-99.99,,,0.00,546.820007,,2013-08-13 00:53:00,
2013-08-12 18:00:00,89.0,27.0,-100.00,West,275,4.0,8.0,10,-99.99,,,0.00,348.079987,,2013-08-13 01:00:00,
2013-08-12 18:55:00,89.0,27.0,-100.00,West,275,4.0,8.0,10,-99.99,,,0.00,348.079987,,2013-08-13 01:55:00,
2013-08-12 19:00:00,84.0,31.0,-100.00,North,356,2.0,4.0,14,-99.99,,,0.00,88.089996,,2013-08-13 02:00:00,
2013-08-12 19:42:00,84.0,31.0,-100.00,North,356,2.0,4.0,14,-99.99,,,0.00,88.089996,,2013-08-13 02:42:00,
2013-08-12 19:52:00,84.0,31.0,-100.00,North,356,2.0,4.0,14,-99.99,,,0.00,88.089996,,2013-08-13 02:52:00,
2013-08-12 20:00:00,80.0,36.0,-100.00,West,278,3.0,5.0,20,-99.99,,,0.00,6.040000,,2013-08-13 03:00:00,
2013-08-12 20:54:00,80.0,36.0,-100.00,West,278,3.0,5.0,20,-99.99,,,0.00,6.040000,,2013-08-13 03:54:00,
2013-08-12 21:00:00,79.0,31.0,-100.00,WNW,285,7.0,11.0,17,-99.99,,,0.00,0.000000,,2013-08-13 04:00:00,
2013-08-12 21:42:00,79.0,31.0,-100.00,WNW,285,7.0,11.0,17,-99.99,,,0.00,0.000000,,2013-08-13 04:42:00,
2013-08-12 21:53:00,79.0,31.0,-100.00,WNW,285,7.0,11.0,17,-99.99,,,0.00,0.000000,,2013-08-13 04:53:00,
2013-08-12 22:00:00,76.0,33.0,-100.00,WNW,296,7.0,11.0,20,-99.99,,,0.00,0.000000,,2013-08-13 05:00:00,
2013-08-12 22:42:00,76.0,33.0,-100.00,WNW,296,7.0,11.0,20,-99.99,,,0.00,0.000000,,2013-08-13 05:42:00,
2013-08-12 22:52:00,76.0,33.0,-100.00,WNW,296,7.0,11.0,20,-99.99,,,0.00,0.000000,,2013-08-13 05:52:00,
2013-08-12 23:00:00,74.0,32.0,-100.00,WNW,286,7.0,13.0,21,-99.99,,,0.00,0.000000,,2013-08-13 06:00:00,
2013-08-12 23:42:00,74.0,32.0,-100.00,WNW,286,7.0,13.0,21,-99.99,,,0.00,0.000000,,2013-08-13 06:42:00,
2013-08-12 23:52:00,74.0,32.0,-100.00,WNW,286,7.0,13.0,21,-99.99,,,0.00,0.000000,,2013-08-13 06:52:00,